KI4SSU Weather Reports


Display with metric or nautical units.
time (UTC)temp
F
wind
direction
speed
MPH
gust
MPH
rain 1hr
in
rain 24hr
in
rain mn
in
humidity
%
barometer
mb
20260505182621 88 229 6.0 7.0 0.00 0.00 0.00
20260505182121 87 224 5.0 8.0 0.00 0.00 0.00
20260505181121 87 255 7.0 11.0 0.00 0.00 0.00
20260505180621 87 266 5.0 7.0 0.00 0.00 0.00
20260505175121 87 263 8.0 6.0 0.00 0.00 0.00
20260505174621 86 183 5.0 9.0 0.00 0.00 0.00
20260505173621 86 221 5.0 11.0 0.00 0.00 0.00
20260505172621 85 227 8.0 9.0 0.00 0.00 0.00
20260505171621 86 242 6.0 8.0 0.00 0.00 0.00
20260505170621 85 166 6.0 8.0 0.00 0.00 0.00
20260505165622 83 244 6.0 5.0 0.00 0.00 0.00
20260505165121 85 228 6.0 11.0 0.00 0.00 0.00
20260505164621 86 228 7.0 10.0 0.00 0.00 0.00
20260505164121 84 218 5.0 5.0 0.00 0.00 0.00
20260505163621 85 213 6.0 14.0 0.00 0.00 0.00
20260505163121 84 245 5.0 9.0 0.00 0.00 0.00
20260505162621 83 232 6.0 6.0 0.00 0.00 0.00
20260505162121 83 245 6.0 15.0 0.00 0.00 0.00
20260505161621 83 235 5.0 11.0 0.00 0.00 0.00
20260505160621 80 177 8.0 7.0 0.00 0.00 0.00
20260505160121 81 217 6.0 8.0 0.00 0.00 0.00
20260505153122 79 237 4.0 6.0 0.00 0.00 0.00
20260505152621 79 222 7.0 8.0 0.00 0.00 0.00
20260505152122 78 232 6.0 6.0 0.00 0.00 0.00
20260505151621 78 255 5.0 10.0 0.00 0.00 0.00
20260505151121 77 297 8.0 5.0 0.00 0.00 0.00
20260505150621 77 232 6.0 9.0 0.00 0.00 0.00
20260505150121 77 235 6.0 10.0 0.00 0.00 0.00
20260505140621 75 231 9.0 14.0 0.00 0.00 0.00
20260505140121 75 249 4.0 3.0 0.00 0.00 0.00
20260505130122 71 8 4.0 3.0 0.00 0.00 0.00
20260505124622 71 256 5.0 5.0 0.00 0.00 0.00
20260505123622 71 234 3.0 3.0 0.00 0.00 0.00
20260505123122 70 221 3.0 7.0 0.00 0.00 0.00
20260505122622 70 153 4.0 8.0 0.00 0.00 0.00
20260505122122 71 242 4.0 11.0 0.00 0.00 0.00
20260505121622 70 211 4.0 9.0 0.00 0.00 0.00
20260505121122 70 190 7.0 5.0 0.00 0.00 0.00
20260505120622 70 241 5.0 4.0 0.00 0.00 0.00
20260505120122 70 227 6.0 8.0 0.00 0.00 0.00
20260505115622 70 260 5.0 10.0 0.00 0.00 0.00
20260505115122 70 238 5.0 5.0 0.00 0.00 0.00
20260505114622 70 214 5.0 9.0 0.00 0.00 0.00
20260505114122 70 260 4.0 8.0 0.00 0.00 0.00
20260505113622 70 207 4.0 3.0 0.00 0.00 0.00
20260505113122 70 210 6.0 4.0 0.00 0.00 0.00
20260505112622 70 245 4.0 4.0 0.00 0.00 0.00
20260505112122 70 229 8.0 10.0 0.00 0.00 0.00
20260505111622 70 251 4.0 7.0 0.00 0.00 0.00
20260505111122 70 217 4.0 9.0 0.00 0.00 0.00
20260505110122 70 215 5.0 7.0 0.00 0.00 0.00
20260505102122 71 221 5.0 4.0 0.00 0.00 0.00
20260505101622 71 225 6.0 12.0 0.00 0.00 0.00
20260505101123 71 267 5.0 8.0 0.00 0.00 0.00
20260505100622 71 234 5.0 9.0 0.00 0.00 0.00
20260505100122 71 204 6.0 9.0 0.00 0.00 0.00
20260505095622 71 238 5.0 6.0 0.00 0.00 0.00
20260505095123 71 227 3.0 5.0 0.00 0.00 0.00
20260505094622 71 177 6.0 4.0 0.00 0.00 0.00
20260505094123 71 160 7.0 8.0 0.00 0.00 0.00
20260505093623 71 263 5.0 9.0 0.00 0.00 0.00
20260505093122 71 229 5.0 9.0 0.00 0.00 0.00
20260505092123 71 266 5.0 8.0 0.00 0.00 0.00
20260505091622 71 213 2.0 0.0 0.00 0.00 0.00
20260505091122 71 218 6.0 8.0 0.00 0.00 0.00
20260505090622 71 229 4.0 4.0 0.00 0.00 0.00
20260505090123 71 182 6.0 3.0 0.00 0.00 0.00
20260505085622 71 245 7.0 8.0 0.00 0.00 0.00
20260505085122 71 239 4.0 14.0 0.00 0.00 0.00
20260505084623 71 217 5.0 8.0 0.00 0.00 0.00
20260505084122 72 245 7.0 12.0 0.00 0.00 0.00
20260505083622 72 148 6.0 10.0 0.00 0.00 0.00
20260505083122 72 200 6.0 13.0 0.00 0.00 0.00
20260505082623 72 197 5.0 12.0 0.00 0.00 0.00
20260505082122 72 203 10.0 12.0 0.00 0.00 0.00
20260505081623 72 203 7.0 10.0 0.00 0.00 0.00
20260505081123 72 186 8.0 8.0 0.00 0.00 0.00
20260505080623 72 200 7.0 10.0 0.00 0.00 0.00
20260505080123 72 224 7.0 10.0 0.00 0.00 0.00
20260505075623 72 218 7.0 6.0 0.00 0.00 0.00
20260505075123 73 359 6.0 5.0 0.00 0.00 0.00
20260505074623 73 259 9.0 13.0 0.00 0.00 0.00
20260505074123 73 241 6.0 6.0 0.00 0.00 0.00
20260505073623 73 207 8.0 10.0 0.00 0.00 0.00
20260505073123 73 225 6.0 7.0 0.00 0.00 0.00
20260505072623 73 221 6.0 6.0 0.00 0.00 0.00
20260505072123 73 182 6.0 5.0 0.00 0.00 0.00
20260505071623 73 275 5.0 7.0 0.00 0.00 0.00
20260505071209 73 204 6.0 5.0 0.00 0.00 0.00
20260505071123 73 204 6.0 5.0 0.00 0.00 0.00
20260505070623 73 270 5.0 6.0 0.00 0.00 0.00
20260505070123 74 224 6.0 7.0 0.00 0.00 0.00
20260505065623 74 210 5.0 6.0 0.00 0.00 0.00
20260505065123 73 153 6.0 5.0 0.00 0.00 0.00
20260505064623 74 199 4.0 6.0 0.00 0.00 0.00
20260505064123 74 213 5.0 11.0 0.00 0.00 0.00
20260505063623 74 203 8.0 8.0 0.00 0.00 0.00
20260505063123 74 231 5.0 7.0 0.00 0.00 0.00
20260505062623 74 207 7.0 6.0 0.00 0.00 0.00
20260505062123 74 234 7.0 11.0 0.00 0.00 0.00
20260505061623 74 204 8.0 11.0 0.00 0.00 0.00
20260505061123 74 228 5.0 7.0 0.00 0.00 0.00
20260505060623 74 211 5.0 11.0 0.00 0.00 0.00
20260505055623 74 229 4.0 3.0 0.00 0.00 0.00
20260505055124 75 231 5.0 8.0 0.00 0.00 0.00
20260505054623 75 217 6.0 8.0 0.00 0.00 0.00
20260505054123 75 220 5.0 4.0 0.00 0.00 0.00
20260505053624 75 241 4.0 5.0 0.00 0.00 0.00
20260505053123 76 224 5.0 8.0 0.00 0.00 0.00
20260505052623 76 208 3.0 9.0 0.00 0.00 0.00
20260505052123 76 200 5.0 7.0 0.00 0.00 0.00
20260505051624 76 267 3.0 3.0 0.00 0.00 0.00
20260505051123 76 224 4.0 4.0 0.00 0.00 0.00
20260505050623 76 197 3.0 14.0 0.00 0.00 0.00
20260505050229 76 256 5.0 7.0 0.00 0.00 0.00
20260505050124 76 256 5.0 7.0 0.00 0.00 0.00
20260505041623 75 263 5.0 5.0 0.00 0.00 0.00
20260505041123 75 241 6.0 6.0 0.00 0.00 0.00
20260505040623 75 152 3.0 4.0 0.00 0.00 0.00
20260505040123 75 241 2.0 1.0 0.00 0.00 0.00
20260505035623 75 173 4.0 3.0 0.00 0.00 0.00
20260505035124 75 242 6.0 7.0 0.00 0.00 0.00
20260505034623 75 297 2.0 4.0 0.00 0.00 0.00
20260505034123 75 256 4.0 10.0 0.00 0.00 0.00
20260505033623 75 235 4.0 3.0 0.00 0.00 0.00
20260505033123 75 306 5.0 5.0 0.00 0.00 0.00
20260505032623 75 87 6.0 2.0 0.00 0.00 0.00
20260505032123 75 276 4.0 7.0 0.00 0.00 0.00
20260505031624 75 225 6.0 5.0 0.00 0.00 0.00
20260505031206 76 82 2.0 4.0 0.00 0.00 0.00
20260505031124 76 82 2.0 4.0 0.00 0.00 0.00
20260505030624 76 269 4.0 4.0 0.00 0.00 0.00
20260505030124 75 235 3.0 4.0 0.00 0.00 0.00
20260505025624 75 176 3.0 4.0 0.00 0.00 0.00
20260505025124 75 183 4.0 4.0 0.00 0.00 0.00
20260505024624 75 200 2.0 5.0 0.00 0.00 0.00
20260505024124 75 122 3.0 3.0 0.00 0.00 0.00
20260505023624 75 120 1.0 2.0 0.00 0.00 0.00
20260505023124 75 193 2.0 6.0 0.00 0.00 0.00
20260505022624 75 162 3.0 2.0 0.00 0.00 0.00
20260505022124 76 6 3.0 3.0 0.00 0.00 0.00
20260505021624 76 156 3.0 3.0 0.00 0.00 0.00
20260505021124 76 214 2.0 3.0 0.00 0.00 0.00
20260505020624 76 156 2.0 3.0 0.00 0.00 0.00
20260505020124 76 173 2.0 5.0 0.00 0.00 0.00
20260505015624 76 218 2.0 3.0 0.00 0.00 0.00
20260505015124 76 155 2.0 4.0 0.00 0.00 0.00
20260505014624 76 183 3.0 4.0 0.00 0.00 0.00
20260505013624 76 210 4.0 3.0 0.00 0.00 0.00
20260505013124 76 217 3.0 5.0 0.00 0.00 0.00
20260505012124 76 148 2.0 3.0 0.00 0.00 0.00
20260505011624 77 190 7.0 7.0 0.00 0.00 0.00
20260505011124 76 208 4.0 4.0 0.00 0.00 0.00
20260505010624 77 175 3.0 5.0 0.00 0.00 0.00
20260505010125 77 244 2.0 5.0 0.00 0.00 0.00
20260505005625 77 325 1.0 2.0 0.00 0.00 0.00
20260505005124 77 170 3.0 9.0 0.00 0.00 0.00
20260505004624 77 214 5.0 5.0 0.00 0.00 0.00
20260505004125 77 172 3.0 4.0 0.00 0.00 0.00
20260505003624 77 69 2.0 2.0 0.00 0.00 0.00
20260505003124 78 137 2.0 4.0 0.00 0.00 0.00
20260505002625 78 210 5.0 8.0 0.00 0.00 0.00
20260505002124 78 267 3.0 6.0 0.00 0.00 0.00
20260505001625 78 155 2.0 3.0 0.00 0.00 0.00
20260505001124 79 190 3.0 5.0 0.00 0.00 0.00
20260505000625 79 199 1.0 5.0 0.00 0.00 0.00
20260505000124 79 107 1.0 3.0 0.00 0.00 0.00
20260504235625 79 197 4.0 3.0 0.00 0.00 0.00
20260504235125 80 148 2.0 5.0 0.00 0.00 0.00
20260504234624 79 158 5.0 4.0 0.00 0.00 0.00
20260504233624 80 149 1.0 3.0 0.00 0.00 0.00
20260504232624 80 160 5.0 3.0 0.00 0.00 0.00
20260504232124 81 238 4.0 4.0 0.00 0.00 0.00
20260504231625 81 201 4.0 13.0 0.00 0.00 0.00
20260504231124 80 220 5.0 6.0 0.00 0.00 0.00
20260504230624 80 234 6.0 8.0 0.00 0.00 0.00
20260504230125 81 193 6.0 6.0 0.00 0.00 0.00
20260504225624 81 100 5.0 6.0 0.00 0.00 0.00
20260504225124 81 196 8.0 6.0 0.00 0.00 0.00
20260504224625 82 231 6.0 17.0 0.00 0.00 0.00
20260504224125 83 15 6.0 11.0 0.00 0.00 0.00
20260504223625 82 1 10.0 6.0 0.00 0.00 0.00
20260504223124 82 13 6.0 8.0 0.00 0.00 0.00
20260504221124 82 197 3.0 5.0 0.00 0.00 0.00
20260504220625 82 206 6.0 7.0 0.00 0.00 0.00
20260504220125 84 177 5.0 10.0 0.00 0.00 0.00
20260504215625 86 142 7.0 12.0 0.00 0.00 0.00
20260504215125 84 184 7.0 13.0 0.00 0.00 0.00
20260504214625 84 224 7.0 11.0 0.00 0.00 0.00
20260504214125 84 193 6.0 5.0 0.00 0.00 0.00
20260504213625 84 231 4.0 11.0 0.00 0.00 0.00
20260504213125 84 237 9.0 6.0 0.00 0.00 0.00
20260504212625 84 49 3.0 5.0 0.00 0.00 0.00
20260504212125 84 213 6.0 8.0 0.00 0.00 0.00
20260504211625 84 260 5.0 5.0 0.00 0.00 0.00
20260504211125 84 204 7.0 11.0 0.00 0.00 0.00
20260504210125 86 241 9.0 9.0 0.00 0.00 0.00
20260504205625 84 279 6.0 7.0 0.00 0.00 0.00
20260504205125 84 103 4.0 7.0 0.00 0.00 0.00
20260504204625 84 189 6.0 9.0 0.00 0.00 0.00
20260504204125 85 190 9.0 12.0 0.00 0.00 0.00
20260504203625 84 249 6.0 8.0 0.00 0.00 0.00
20260504203125 84 249 7.0 7.0 0.00 0.00 0.00
20260504202625 84 220 7.0 7.0 0.00 0.00 0.00
20260504202125 84 177 6.0 8.0 0.00 0.00 0.00
20260504201625 84 200 6.0 15.0 0.00 0.00 0.00
20260504201125 84 210 7.0 11.0 0.00 0.00 0.00
20260504200626 84 238 7.0 8.0 0.00 0.00 0.00
20260504200125 84 248 4.0 7.0 0.00 0.00 0.00
20260504195625 84 172 4.0 10.0 0.00 0.00 0.00
20260504195125 83 227 5.0 7.0 0.00 0.00 0.00
20260504194125 84 196 7.0 8.0 0.00 0.00 0.00
20260504193625 84 238 6.0 6.0 0.00 0.00 0.00
20260504193126 83 197 4.0 3.0 0.00 0.00 0.00
20260504192625 83 196 5.0 7.0 0.00 0.00 0.00
20260504192125 83 235 3.0 5.0 0.00 0.00 0.00
20260504191125 83 187 7.0 7.0 0.00 0.00 0.00
20260504190625 83 8 3.0 5.0 0.00 0.00 0.00
20260504190125 82 238 7.0 9.0 0.00 0.00 0.00
20260504185125 82 222 8.0 11.0 0.00 0.00 0.00
20260504184625 83 241 6.0 11.0 0.00 0.00 0.00
20260504184126 83 220 5.0 11.0 0.00 0.00 0.00
20260504183625 82 187 5.0 8.0 0.00 0.00 0.00